Home > Weather > Zaandam > Past weeks

Flag for Netherlands Past Weather in Zaandam, Netherlands — Yesterday and Last 2 Weeks

Now
61 °F

Passing clouds.


Feels Like: 61 °F
Forecast: 58 / 66 °F
Wind: 8 mph from South

Location: Amsterdam Schiphol Airport

Current Time: Jul 29, 2016 at 6:04:45 AM

Latest Report: Jul 29, 2016 at 4:55 AM


Visibility: 5 mi

Pressure: 29.86 "Hg

Humidity: 100%

Dew Point: 61 °F

Location of ZaandamLocation

Past Weather in Zaandam — Graph

°F

Zaandam Temperature Yesterday

Maximum temperature yesterday: 72 °F (at 2:25 PM)
Minimum temperature yesterday: 59 °F (at 2:55 AM)
Average temperature yesterday: 66 °F

High & Low Weather Summary for the Past Weeks

 TemperatureHumidityPressure
High91 °F (Jul 20, 3:25 PM)100% (Jul 17, 11:25 PM)30.27 "Hg (Jul 17, 11:25 PM)
Low52 °F (Jul 14, 4:55 AM)38% (Jul 20, 2:55 PM)29.80 "Hg (Jul 20, 3:55 PM)
Average68 °F77%30.07 "Hg
* Reported Jul 14 4:25 AM — Jul 29 4:55 AM, Zaandam, Weather by CustomWeather, © 2016

Note: Actual official high and low records may vary slightly from our data, if they occured in-between our weather recording intervals... More about our weather records

Advertising

Zaandam Weather History for the Previous 24 Hours

Scroll right to see more
 ConditionsComfort  
Time TempWeatherWind HumidityBarometerVisibility
4:55 AM
Fri, Jul 29
61 °FPassing clouds.8 mph100%29.86 "Hg5 mi
4:25 AM61 °FPartly cloudy.9 mph100%29.86 "Hg6 mi
3:55 AM61 °FPartly cloudy.10 mph94%29.86 "Hg6 mi
3:25 AM61 °FPartly cloudy.9 mph100%29.86 "Hg5 mi
2:55 AM61 °FPartly cloudy.9 mph94%29.89 "HgN/A
2:25 AM63 °FPartly cloudy.13 mph88%29.89 "HgN/A
1:55 AM61 °FPassing clouds.9 mph94%29.89 "HgN/A
1:25 AM61 °FPassing clouds.13 mph94%29.89 "HgN/A
12:55 AM63 °FPassing clouds.8 mph88%29.89 "HgN/A
12:25 AM61 °FPassing clouds.7 mph94%29.89 "HgN/A
11:55 PM
Thu, Jul 28
63 °FPassing clouds.8 mph83%29.89 "HgN/A
11:25 PM63 °FPassing clouds.10 mph88%29.92 "HgN/A
10:55 PM63 °FSprinkles. Passing clouds.7 mph94%29.89 "HgN/A
10:25 PM63 °FSprinkles. Passing clouds.7 mph94%29.92 "HgN/A
9:55 PM64 °FSprinkles. Scattered clouds.9 mph88%29.92 "HgN/A
9:25 PM64 °FLight rain. Scattered clouds.9 mph88%29.92 "HgN/A
8:55 PM64 °FLight rain. Scattered clouds.13 mph83%29.92 "HgN/A
8:25 PM66 °FLight rain. Scattered clouds.14 mph78%29.92 "HgN/A
7:55 PM66 °FPartly sunny.16 mph78%29.92 "HgN/A
7:25 PM66 °FPartly sunny.16 mph83%29.89 "HgN/A
6:55 PM68 °FScattered clouds.15 mph78%29.89 "HgN/A
6:25 PM68 °FBroken clouds.18 mph83%29.89 "HgN/A
5:55 PM68 °FBroken clouds.18 mph83%29.89 "HgN/A
5:25 PM70 °FScattered clouds.17 mph78%29.89 "HgN/A
4:55 PM72 °FScattered showers. Passing clouds.16 mph73%29.89 "HgN/A
4:25 PM72 °FScattered showers. Scattered clouds.12 mph73%29.89 "HgN/A
3:55 PM72 °FScattered clouds.7 mph73%29.92 "HgN/A
3:25 PM72 °FScattered showers. Scattered clouds.10 mph73%29.92 "HgN/A
2:55 PM72 °FScattered clouds.9 mph73%29.92 "HgN/A
2:25 PM72 °FScattered showers. Scattered clouds.10 mph73%29.92 "HgN/A
1:55 PM70 °FScattered showers. Scattered clouds.10 mph78%29.92 "HgN/A
1:25 PM70 °FScattered clouds.10 mph73%29.92 "HgN/A
12:55 PM70 °FBroken clouds.13 mph73%29.92 "HgN/A
12:25 PM70 °FScattered clouds.13 mph73%29.92 "HgN/A
11:55 AM70 °FScattered clouds.13 mph78%29.95 "HgN/A
11:25 AM68 °FScattered showers. Scattered clouds.10 mph83%29.95 "HgN/A
10:55 AM68 °FSprinkles. Scattered clouds.12 mph83%29.95 "HgN/A
10:25 AM68 °FScattered showers. Scattered clouds.8 mph88%29.95 "HgN/A
9:55 AM66 °FBroken clouds.8 mph88%29.95 "HgN/A
9:25 AM66 °FPartly sunny.6 mph94%29.95 "Hg6 mi
8:55 AM64 °FBroken clouds.7 mph94%29.95 "Hg5 mi
8:25 AM64 °FPartly sunny.5 mph94%29.95 "Hg5 mi
7:55 AM64 °FDrizzle. Broken clouds.6 mph94%29.95 "Hg6 mi
7:25 AM63 °FBroken clouds.7 mph94%29.95 "HgN/A
6:55 AM63 °FPassing clouds.5 mph100%29.95 "Hg6 mi
6:25 AM63 °FPartly cloudy.5 mph94%29.95 "Hg5 mi
Weather by CustomWeather, © 2016

See weather overviewHow to use our weather pages